Flag for Netherlands Weather past 2 weeks in Dordrecht, Netherlands

Now
59 °F

Clear.


Feels Like: 57 °F
Forecast: 46 / 56 °F
Wind: 13 mph from Southwest

Location: Rotterdam Zestienhoven Airport

Current Time: Oct 20, 2014 at 8:51:58 PM

Latest Report: Oct 20, 2014 at 8:25 PM


Visibility: N/A

Pressure: 29.92 "Hg

Humidity: 82%

Dew point: 54 °F

Location of DordrechtLocation

Historic Weather in Dordrecht — Graph

°F

Dordrecht temperature yesterday

Maximum temperature yesterday: 68 °F (at 11:55 AM)
Minimum temperature yesterday: 61 °F (at 8:25 PM)
Average temperature yesterday: 64 °F

Past Weeks' High & Low Weather Summary

 TemperatureHumidityPressure
High73 °F (Oct 18, 3:55 PM)100% (Oct 11, 2:55 AM)30.04 "Hg (Oct 11, 2:55 AM)
Low46 °F (Oct 11, 4:25 AM)56% (Oct 9, 4:55 PM)29.39 "Hg (Oct 7, 10:55 AM)
Average58 °F85%29.76 "Hg
* Reported Oct 5 7:25 PM — Oct 20 7:55 PM, Dordrecht, Weather by CustomWeather, © 2014

Note: Actual official high and low records may vary slightly from our data, if they occured in-between our weather recording intervals... More about our weather records

Advertising

Dordrecht weather history for previous 24 hours

 ConditionsComfort  
Time TempWeatherWind HumidityBarometerVisibility
7:55 PM
Oct 20
59 °FClear.14 mph82%29.92 "HgN/A
7:25 PM59 °FClear.12 mph82%29.92 "HgN/A
6:55 PM59 °FClear.13 mph77%29.95 "HgN/A
6:25 PM59 °FClear.12 mph77%29.95 "HgN/A
5:55 PM59 °FPassing clouds.15 mph77%29.95 "HgN/A
5:25 PM59 °FPassing clouds.12 mph77%29.95 "HgN/A
4:55 PM59 °FScattered clouds.12 mph77%29.95 "HgN/A
4:25 PM61 °FScattered clouds.15 mph72%29.95 "HgN/A
3:55 PM61 °FPassing clouds.17 mph72%29.98 "HgN/A
3:25 PM61 °FBroken clouds.20 mph72%29.98 "HgN/A
2:55 PM61 °FPartly sunny.15 mph77%29.98 "HgN/A
2:25 PM61 °FPassing clouds.15 mph72%29.98 "HgN/A
1:55 PM63 °FClear.14 mph68%29.98 "HgN/A
1:25 PM61 °FPassing clouds.14 mph72%30.01 "HgN/A
12:55 PM61 °FPassing clouds.12 mph72%30.01 "HgN/A
12:25 PM61 °FBroken clouds.17 mph77%30.01 "HgN/A
11:55 AM61 °FPartly sunny.16 mph77%30.01 "HgN/A
11:25 AM57 °FPassing clouds.10 mph88%30.01 "HgN/A
10:55 AM59 °FPartly sunny.12 mph82%30.01 "HgN/A
10:25 AM59 °FLight rain. Broken clouds.14 mph82%30.01 "HgN/A
9:55 AM59 °FBroken clouds.8 mph82%29.98 "HgN/A
9:25 AM59 °FBroken clouds.12 mph82%29.98 "HgN/A
8:55 AM59 °FMostly cloudy.12 mph82%29.98 "HgN/A
8:25 AM59 °FPartly cloudy.12 mph82%29.98 "HgN/A
7:55 AM59 °FPartly cloudy.12 mph82%29.98 "HgN/A
6:55 AM59 °FOvercast.13 mph77%29.95 "HgN/A
5:25 AM59 °FPartly cloudy.16 mph82%29.95 "HgN/A
4:55 AM59 °FPassing clouds.18 mph82%29.95 "HgN/A
4:25 AM61 °FPartly cloudy.16 mph77%29.98 "HgN/A
3:55 AM59 °FPassing clouds.18 mph82%29.98 "HgN/A
3:25 AM61 °FMostly cloudy.17 mph77%29.98 "HgN/A
2:55 AM59 °FPassing clouds.15 mph82%29.98 "HgN/A
2:25 AM59 °FCool.17 mph82%29.98 "HgN/A
1:55 AM59 °FCool.17 mph88%29.98 "HgN/A
1:25 AM59 °FPassing clouds.18 mph88%29.98 "HgN/A
12:55 AM59 °FPassing clouds.20 mph88%29.98 "HgN/A
12:25 AM61 °FPassing clouds.21 mph83%29.98 "HgN/A
11:55 PM
Oct 19
61 °FPartly cloudy.20 mph83%29.98 "Hg6 mi
11:25 PM61 °FPassing clouds.18 mph83%29.98 "HgN/A
10:55 PM61 °FMostly cloudy.17 mph83%29.98 "HgN/A
10:25 PM61 °FPassing clouds.21 mph83%29.98 "HgN/A
9:55 PM61 °FPassing clouds.21 mph83%29.95 "HgN/A
9:25 PM61 °FPassing clouds.21 mph83%29.95 "HgN/A
8:55 PM61 °FPassing clouds.21 mph83%29.95 "HgN/A
8:25 PM61 °FPassing clouds.18 mph83%29.95 "HgN/A
Weather by CustomWeather, © 2014

See weather overviewHow to use our weather pages